Location: Bathsheba
(13.2167°N, 59.5167°W)
Time: 23:19:52
(UTC+00:00)

CSL-04 Rocket - Pass Details

Date: 18 September 2020
Orbit: 806 x 860 km, 98.9° (Epoch: 20 October)

Event Time Altitude Azimuth Distance (km) Brightness Sun altitude
Rises 23:20:58 0° 168° (SSE) 3,326 6.6 -21.3°
Reaches altitude 10° 23:23:17 10° 169° (S) 2,401 5.9 -21.9°
Maximum altitude 23:28:36 84° 256° (WSW) 831 3.6 -23.1°
Drops below altitude 10° 23:34:00 10° 346° (NNW) 2,435 6.3 -24.5°
Sets 23:36:22 0° 347° (NNW) 3,377 7.1 -25.0°
